User: anonymous
Location: Caltech
(34.1382°N, 118.1253°W)
Time: 16:46:13
(UTC-07:00)
Language:

Cosmos 1508 Rocket - Orbit

View from above orbital plane
View from above orbital plane
View from above satellite
View from above satellite

Ground track
Ground track

The orbit data is extracted from the following two-line orbital elements,

1 14484U 83111B   14260.82665728  .00046806  00000-0  65128-3 0  6291
2 14484 082.8361 239.2347 0194053 301.3021 103.1953 15.37776558586750
Epoch (UTC): 17 September 2014 19:50:23
Eccentricity: 0.0194053
inclination: 82.8361°
perigee height: 320 km
apogee height: 585 km
right ascension of ascending node: 239.2347°
argument of perigee: 301.3021°
revolutions per day: 15.37776558
mean anomaly at epoch: 103.1953°
orbit number at epoch: 58675

The dashed part of the orbit path shows where the satellite is in the earth's shadow,  

DLR